Miscellaneous Local Product
Issued by NWS Hastings, NE

Home | Current Version | Previous Version | Text Only | Print | Product List | Glossary On
Versions: 1 2 3 4 5 6 7 8 9 10 11 12 13 14 15 16 17 18 19 20 21 22 23 24 25 26 27 28 29 30 31 32 33 34 35 36 37 38 39 40 41 42 43 44 45 46 47 48 49 50
000
AXUS43 KGID 211510
MISGRI

GID CWA HOURLY WEATHER ROUNDUP
NATIONAL WEATHER SERVICE HASTINGS NE
1000 AM CDT SUN SEP 21 2014

NOTE: "FAIR" INDICATES FEW OR NO CLOUDS BELOW 12,000 FEET WITH NO
SIGNIFICANT WEATHER AND/OR OBSTRUCTIONS TO VISIBILITY.

...SOUTH CENTRAL NEBRASKA...

CITY           SKY/WX    TMP DP  RH WIND       PRES   REMARKS
GRAND ISLAND   SUNNY     65  44  46 N9        30.30R
HASTINGS       SUNNY     63  43  48 N10       30.29R
KEARNEY        SUNNY     61  45  55 NW10      30.32R
ORD            SUNNY     58  45  62 N7        30.30R
YORK           SUNNY     61  48  63 N9        30.28R
AURORA         SUNNY     62  43  49 N10       30.29R
LEXINGTON      MOSUNNY   60  48  64 N3        30.34R
HOLDREGE       SUNNY     61  43  51 N12       30.32R
HEBRON         SUNNY     65  44  47 N7        30.27R

...NEBRASKA PANHANDLE...

CITY           SKY/WX    TMP DP  RH WIND       PRES   REMARKS
CHADRON        SUNNY     53  43  68 CALM      30.37S
ALLIANCE       MOSUNNY   57  41  55 CALM      30.38R
SCOTTSBLUFF    CLOUDY    59  43  55 E5        30.39R
SIDNEY         CLOUDY    60  39  45 E6        30.42R

...WESTERN AND NORTH CENTRAL NEBRASKA...

CITY           SKY/WX    TMP DP  RH WIND       PRES   REMARKS
VALENTINE      SUNNY     62  42  47 VRB3      30.34R
AINSWORTH      SUNNY     58  43  56 NW7       30.33R
ONEILL         SUNNY     59  46  61 NW12      30.30R
BROKEN BOW     SUNNY     65  41  41 N8        30.32R
IMPERIAL       MOSUNNY   64  41  42 NE8       30.37R
NORTH PLATTE   CLOUDY    56  45  66 SW3       30.35R
MCCOOK         PTSUNNY   65  43  44 NE9       30.34R

...EASTERN NEBRASKA...

CITY           SKY/WX    TMP DP  RH WIND       PRES   REMARKS
NORFOLK        SUNNY     62  46  55 NW9       30.26R
SO SIOUX CITY  SUNNY     60  47  61 NW12      30.22R
TEKAMAH        SUNNY     64  47  53 NW12G20   30.21R
COLUMBUS       SUNNY     63  45  51 N13       30.28R
ALBION         SUNNY     60  44  55 NW8       30.29R
OMAHA EPPLEY   SUNNY     63  47  55 NW15      30.22R
OFFUTT AFB     SUNNY     64  50  61 N12       30.21R
MILLARD        SUNNY     62  48  58 NW7       30.22R
LINCOLN        SUNNY     65  46  50 NW14      30.25R
NEBRASKA CITY    N/A     64  40  40 N12G20    30.21R
BEATRICE       SUNNY     67  47  49 N15       30.24R
FALLS CITY     SUNNY     66  51  58 NW10      30.19R

...NORTHERN KANSAS...

CITY           SKY/WX    TMP DP  RH WIND       PRES   REMARKS
GOODLAND       CLOUDY    60  46  59 NW5       30.38R
HILL CITY      PTSUNNY   66  43  43 N13       30.31R
NORTON         SUNNY     66  37  34 N9        30.31
SMITH CENTER   SUNNY     66  43  42 N9        30.29R
BELOIT         SUNNY     66  48  52 N3        30.26R
HAYS           SUNNY     66  46  48 N10       30.29R
RUSSELL        SUNNY     67  50  54 N9        30.27R
CONCORDIA      SUNNY     66  51  58 NW6       30.25R
SALINA         SUNNY     69  56  62 N9        30.25R
TOPEKA         SUNNY     70  60  70 NW7       30.20R



USA.gov is the U.S. government's official web portal to all federal, state and local government web resources and services.